Simultaneous Nadir Overpasses (SNOs) Predictions

Prediction of SNOs between GOES-17 and METOP-C Satellite Orbit:

Table of predicted SNOs for the next 14.0 days since TLE Epoch: 6/22/2024
Index Date Time (GOES-17) GOES-17 Lat,Lon METOP-C Lat,Lon Distance(km) Time Diff (sec)
1 06/23/2024 04:41:35 -0.01,-104.69 -0.64,-107.41 310.48 80
2 06/24/2024 04:18:16 -0.00,-104.69 0.48,-102.42 258.21 80
3 06/25/2024 16:37:08 0.00,-104.71 0.53,-106.98 259.24 80
4 06/26/2024 16:19:10 -0.00,-104.71 -0.59,-101.99 309.65 80
5 06/28/2024 04:38:12 0.01,-104.69 -0.43,-106.59 216.78 80
6 06/29/2024 04:14:54 0.01,-104.69 0.70,-101.60 352.19 80
7 06/30/2024 16:33:46 -0.00,-104.71 0.31,-106.16 164.84 80
8 07/01/2024 16:13:08 -0.01,-104.71 -0.82,-101.17 404.16 80
9 07/03/2024 04:34:49 0.00,-104.69 -0.24,-105.76 122.17 80
10 07/04/2024 04:11:30 0.01,-104.69 0.90,-100.77 446.55 80
11 07/05/2024 16:33:03 -0.01,-104.70 0.10,-105.33 70.99 80
